When you browse on this site, cookies collect data to enhance your experience and personalize the content and advertising you see.
Visit our Privacy Policy to learn more. By continuing to use the site, you agree to this use of cookies and data.
  • In Belgium
  • List of Countries
  • For 7 days
  • Water Temperature
  • Satellite Maps
  • Weather Map
  • Weather Widgets
  • user-avatar
    Login

    Hourly Weather Galata

    Today, 17 June, Monday

    Time Temperature Precipitation Wind Pressure Humidity
    00:00 +21°C° 0 mm 2 mps 752 mmHg 63%
    01:00 +20°C° 0 mm 2 mps 752 mmHg 63%
    02:00 +20°C° 0 mm 3 mps 752 mmHg 63%
    03:00 +20°C° 0 mm 3 mps 752 mmHg 64%
    04:00 +20°C° 0 mm 3 mps 752 mmHg 64%
    05:00 +20°C° 0 mm 4 mps 752 mmHg 65%
    06:00 +22°C° 0 mm 3 mps 753 mmHg 63%
    07:00 +25°C° 0 mm 3 mps 753 mmHg 61%
    08:00 +27°C° 0 mm 3 mps 753 mmHg 59%
    09:00 +29°C° 0 mm 3 mps 753 mmHg 54%
    10:00 +30°C° 0 mm 4 mps 753 mmHg 49%
    11:00 +33°C° 0 mm 4 mps 753 mmHg 44%
    12:00 +33°C° 0 mm 4 mps 753 mmHg 47%
    13:00 +33°C° 0 mm 5 mps 753 mmHg 50%
    14:00 +32°C° 0 mm 6 mps 753 mmHg 53%
    15:00 +30°C° 0 mm 6 mps 753 mmHg 56%
    16:00 +30°C° 0 mm 6 mps 753 mmHg 59%
    17:00 +29°C° 0 mm 6 mps 753 mmHg 62%
    18:00 +27°C° 0 mm 5 mps 753 mmHg 70%
    19:00 +25°C° 0 mm 4 mps 753 mmHg 78%
    20:00 +23°C° 0 mm 4 mps 753 mmHg 86%
    21:00 +22°C° 0 mm 3 mps 753 mmHg 85%
    22:00 +21°C° 0 mm 3 mps 753 mmHg 85%
    23:00 +20°C° 0 mm 3 mps 754 mmHg 84%

    Tomorrow, 18 June, Tuesday

    Time Temperature Precipitation Wind Pressure Humidity
    00:00 +20°C° 0 mm 3 mps 753 mmHg 83%
    01:00 +20°C° 0 mm 3 mps 753 mmHg 81%
    02:00 +19°C° 0 mm 3 mps 753 mmHg 80%
    03:00 +19°C° 0 mm 3 mps 753 mmHg 80%
    04:00 +19°C° 0 mm 4 mps 753 mmHg 81%
    05:00 +19°C° 0 mm 4 mps 753 mmHg 81%
    06:00 +21°C° 0 mm 4 mps 753 mmHg 76%
    07:00 +23°C° 0 mm 4 mps 754 mmHg 72%
    08:00 +26°C° 0 mm 5 mps 754 mmHg 68%
    09:00 +27°C° 0.4 mm 5 mps 754 mmHg 65%
    10:00 +28°C° 0.4 mm 5 mps 754 mmHg 63%
    11:00 +29°C° 0.4 mm 5 mps 754 mmHg 61%
    12:00 +29°C° 0.4 mm 5 mps 754 mmHg 59%
    13:00 +29°C° 0.4 mm 5 mps 754 mmHg 58%
    14:00 +29°C° 0.4 mm 5 mps 754 mmHg 56%
    15:00 +29°C° 0 mm 5 mps 754 mmHg 56%
    16:00 +29°C° 0 mm 5 mps 753 mmHg 57%
    17:00 +28°C° 0 mm 5 mps 753 mmHg 57%
    18:00 +26°C° 0 mm 4 mps 753 mmHg 66%
    19:00 +25°C° 0 mm 4 mps 753 mmHg 75%
    20:00 +22°C° 0 mm 3 mps 753 mmHg 84%
    21:00 +21°C° 0 mm 3 mps 753 mmHg 85%
    22:00 +20°C° 0 mm 3 mps 754 mmHg 87%
    23:00 +20°C° 0 mm 3 mps 754 mmHg 88%

    Day after tomorrow, 19 June, Wednesday

    Time Temperature Precipitation Wind Pressure Humidity
    00:00 +19°C° 0 mm 3 mps 754 mmHg 88%
    01:00 +19°C° 0 mm 3 mps 753 mmHg 88%
    02:00 +18°C° 0 mm 3 mps 753 mmHg 87%
    03:00 +18°C° 0 mm 3 mps 753 mmHg 85%
    04:00 +18°C° 0 mm 3 mps 753 mmHg 83%
    05:00 +18°C° 0 mm 3 mps 753 mmHg 81%
    06:00 +20°C° 0 mm 3 mps 753 mmHg 74%
    07:00 +22°C° 0 mm 3 mps 753 mmHg 67%
    08:00 +26°C° 0 mm 3 mps 754 mmHg 61%
    09:00 +27°C° 0 mm 4 mps 754 mmHg 55%
    10:00 +28°C° 0 mm 4 mps 754 mmHg 50%
    11:00 +30°C° 0 mm 4 mps 754 mmHg 44%
    12:00 +30°C° 0 mm 4 mps 753 mmHg 44%
    13:00 +30°C° 0 mm 4 mps 753 mmHg 45%
    14:00 +30°C° 0 mm 5 mps 753 mmHg 45%
    15:00 +30°C° 0 mm 4 mps 752 mmHg 48%
    16:00 +29°C° 0 mm 4 mps 752 mmHg 51%
    17:00 +28°C° 0 mm 4 mps 752 mmHg 54%
    18:00 +27°C° 0 mm 4 mps 752 mmHg 61%
    19:00 +25°C° 0 mm 3 mps 752 mmHg 68%
    20:00 +23°C° 0 mm 2 mps 752 mmHg 76%
    21:00 +21°C° 0 mm 2 mps 752 mmHg 76%
    22:00 +20°C° 0 mm 2 mps 752 mmHg 77%
    23:00 +20°C° 0 mm 2 mps 753 mmHg 77%

    20 June, Thursday

    Time Temperature Precipitation Wind Pressure Humidity
    00:00 +20°C° 0 mm 2 mps 752 mmHg 77%
    01:00 +19°C° 0 mm 3 mps 752 mmHg 77%
    02:00 +19°C° 0 mm 3 mps 752 mmHg 77%
    03:00 +19°C° 0 mm 3 mps 752 mmHg 77%
    04:00 +19°C° 0 mm 3 mps 752 mmHg 77%
    05:00 +19°C° 0 mm 3 mps 752 mmHg 76%
    06:00 +21°C° 0 mm 3 mps 752 mmHg 73%
    07:00 +24°C° 0 mm 3 mps 752 mmHg 69%
    08:00 +26°C° 0 mm 4 mps 752 mmHg 65%
    09:00 +27°C° 0 mm 3 mps 752 mmHg 60%
    10:00 +29°C° 0 mm 3 mps 752 mmHg 55%
    11:00 +31°C° 0 mm 3 mps 752 mmHg 50%
    12:00 +32°C° 0 mm 4 mps 752 mmHg 51%
    13:00 +32°C° 0 mm 4 mps 752 mmHg 51%
    14:00 +32°C° 0 mm 5 mps 752 mmHg 52%
    15:00 +30°C° 0 mm 5 mps 752 mmHg 54%
    16:00 +30°C° 0 mm 5 mps 752 mmHg 57%
    17:00 +29°C° 0 mm 4 mps 752 mmHg 59%
    18:00 +28°C° 0 mm 4 mps 752 mmHg 66%
    19:00 +26°C° 0 mm 3 mps 752 mmHg 74%
    20:00 +24°C° 0 mm 3 mps 752 mmHg 81%
    21:00 +23°C° 0 mm 2 mps 752 mmHg 83%
    22:00 +23°C° 0 mm 2 mps 752 mmHg 85%
    23:00 +21°C° 0 mm 2 mps 753 mmHg 87%

    21 June, Friday

    Time Temperature Precipitation Wind Pressure Humidity
    00:00 +21°C° 0 mm 2 mps 753 mmHg 87%
    01:00 +21°C° 0 mm 3 mps 753 mmHg 87%
    02:00 +20°C° 0 mm 3 mps 753 mmHg 87%
    03:00 +20°C° 0 mm 3 mps 753 mmHg 88%
    04:00 +20°C° 0 mm 3 mps 753 mmHg 88%
    05:00 +20°C° 0 mm 3 mps 752 mmHg 89%
    06:00 +22°C° 0 mm 3 mps 753 mmHg 82%
    07:00 +25°C° 0 mm 4 mps 753 mmHg 76%
    08:00 +27°C° 0 mm 4 mps 753 mmHg 69%
    09:00 +29°C° 0 mm 4 mps 753 mmHg 63%
    10:00 +30°C° 0 mm 4 mps 753 mmHg 56%
    11:00 +32°C° 0 mm 4 mps 753 mmHg 50%
    12:00 +32°C° 0 mm 5 mps 753 mmHg 51%
    13:00 +32°C° 0 mm 5 mps 753 mmHg 53%
    14:00 +32°C° 0 mm 5 mps 753 mmHg 54%
    15:00 +32°C° 0 mm 5 mps 753 mmHg 58%
    16:00 +30°C° 0 mm 5 mps 753 mmHg 61%
    17:00 +29°C° 0 mm 5 mps 752 mmHg 65%
    18:00 +28°C° 0 mm 5 mps 753 mmHg 71%
    19:00 +26°C° 0 mm 4 mps 753 mmHg 77%
    20:00 +23°C° 0 mm 4 mps 753 mmHg 84%
    21:00 +24°C° 0 mm 3 mps 753 mmHg 85%
    22:00 +22°C° 0 mm 3 mps 753 mmHg 86%
    23:00 +22°C° 0 mm 3 mps 753 mmHg 86%

    22 June, Saturday

    Time Temperature Precipitation Wind Pressure Humidity
    00:00 +21°C° 0 mm 3 mps 753 mmHg 85%
    01:00 +21°C° 0 mm 3 mps 753 mmHg 84%
    02:00 +21°C° 0 mm 3 mps 753 mmHg 83%
    03:00 +21°C° 0 mm 3 mps 753 mmHg 82%
    04:00 +21°C° 0 mm 3 mps 753 mmHg 82%
    05:00 +21°C° 0 mm 3 mps 753 mmHg 81%
    06:00 +24°C° 0 mm 3 mps 753 mmHg 75%
    07:00 +26°C° 0 mm 3 mps 753 mmHg 69%
    08:00 +27°C° 0 mm 3 mps 754 mmHg 63%
    09:00 +29°C° 0 mm 4 mps 754 mmHg 56%
    10:00 +30°C° 0 mm 4 mps 754 mmHg 50%
    11:00 +33°C° 0 mm 4 mps 754 mmHg 43%
    12:00 +33°C° 0 mm 5 mps 753 mmHg 43%
    13:00 +33°C° 0 mm 5 mps 753 mmHg 44%
    14:00 +33°C° 0 mm 5 mps 753 mmHg 44%
    15:00 +32°C° 0 mm 5 mps 753 mmHg 48%
    16:00 +32°C° 0 mm 4 mps 753 mmHg 51%
    17:00 +30°C° 0 mm 4 mps 753 mmHg 55%
    18:00 +28°C° 0 mm 4 mps 753 mmHg 63%
    19:00 +26°C° 0 mm 3 mps 753 mmHg 72%
    20:00 +25°C° 0 mm 2 mps 753 mmHg 80%
    21:00 +24°C° 0 mm 2 mps 753 mmHg 80%
    22:00 +23°C° 0 mm 2 mps 753 mmHg 80%
    23:00 +23°C° 0 mm 1 mps 753 mmHg 80%
    Show more